Regional Weather Roundup
Issued by NWS

Home | Current Version | Previous Version | Text Only | Print | Product List | Glossary Off
Versions: 1 2 3 4 5 6 7 8 9 10 11 12 13 14 15 16 17 18 19 20 21 22 23 24 25 26 27 28 29 30 31 32 33 34 35 36 37 38 39 40 41 42 43 44 45 46 47 48 49 50

658
ASUS45 KBOU 191810
RWRCO

WEATHER ROUNDUP FOR COLORADO
NATIONAL WEATHER SERVICE PUEBLO CO
1200 PM MDT THU APR 19 2018

NOTE: "FAIR" INDICATES FEW OR NO CLOUDS BELOW 12000 FEET WITH NO
SIGNIFICANT WEATHER AND/OR OBSTRUCTIONS TO VISIBILITY.

COZ001>005-013-030-031-191900-
...NORTHWEST COLORADO...

CITY           SKY/WX    TMP DP  RH WIND       PRES   REMARKS
CRAIG          CLOUDY    62  16  16 VRB3      29.99F
HAYDEN         CLOUDY    59  14  17 E9G18     30.02F
MEEKER         CLOUDY    63  14  15 MISG      29.97F
RABBIT EARS PA NOT AVBL
STEAMBOAT SPGS FAIR      59  11  15 SE8G20    30.02F
WALDEN         FAIR      54   1  12 S10G16    30.13S
$$

COZ006>008-011-191900-
...WEST CENTRAL VALLEYS...

CITY           SKY/WX    TMP DP  RH WIND       PRES   REMARKS
GRAND JUNCTION PTSUNNY   67  13  12 E5        29.90F
MONTROSE       MOSUNNY   68  -8   4 S16G30    29.95F
EAGLE          MOSUNNY   53  14  21 SW5       30.05F
RIFLE          MOSUNNY   61  21  21 W5        29.93F
DELTA          NOT AVBL
NUCLA          NOT AVBL
$$

COZ017>023-064>068-191900-
...SOUTHWEST COLORADO...

CITY           SKY/WX    TMP DP  RH WIND       PRES   REMARKS
DURANGO        SUNNY     62  13  14 SE9G21    30.10F
CORTEZ         MOSUNNY   67   7   9 SE23G35   30.00F
PAGOSA SPRINGS FAIR      58   7  13 S5        30.18F
TELLURIDE      SUNNY     53   5  14 SE18G30   30.12F
WOLF CREEK PAS MOSUNNY   36  12  38 S22G38    30.33S
$$

COZ009-010-012-014-032>034-037-058>063-191900-
...CENTRAL COLORADO...

CITY           SKY/WX    TMP DP  RH WIND       PRES   REMARKS
ASPEN          SUNNY     59   2  10 SW16G25   30.06F
BUENA VISTA    FAIR      51   6  16 SE14G20   30.19F
COPPER MTN     NOT AVBL
BERTHOUD PASS  FAIR      28  19  69 SE15G29   30.29F WCI  17
COTTONWOOD PAS SUNNY     50   9  18 SE8G17    30.24F
GUNNISON       SUNNY     60   5  11 SE22G35   30.07F
KREMMLING      SUNNY     59   9  13 CALM      30.09F
LEADVILLE      SUNNY     44  12  27 S21G26    30.17F
MONARCH PASS   SUNNY     36   5  27 SW17G36   30.41S
SALIDA         FAIR      52   8  16 E16G22    30.25F
SUNLIGHT       MOSUNNY   45   7  21 S5        30.21S
WILKERSON PASS MOSUNNY   41   1  19 S7        30.33S
$$

COZ069>075-191900-
...SAN LUIS VALLEY/SANGRE DE CRISTO MOUNTAINS...

CITY           SKY/WX    TMP DP  RH WIND       PRES   REMARKS
ALAMOSA        SUNNY     59  11  15 S20G28    30.16F
DEL NORTE      FAIR      51  10  19 E3        30.19F
LA VETA PASS   SUNNY     46  12  25 SE12G33   30.41S
SAGUACHE       NOT AVBL
$$

COZ035-036-038>040-191900-
...NORTHERN COLORADO FRONT RANGE...

CITY           SKY/WX    TMP DP  RH WIND       PRES   REMARKS
DENVER INTL AP CLOUDY    57  16  20 SE17G30   30.17F
DMNS CITY PARK NOT AVBL
AURORA         PTSUNNY   56  16  20 S15       30.16F
FRONT RANGE AP PTSUNNY   55  16  21 SE22      30.19F
ERIE MUNI ARPT FAIR      51  15  23 CALM      30.24F
BOULDER MUN AP FAIR      48  18  29 N5        30.19F
CENTENNIAL     PTSUNNY   55  18  23 S12       30.17F
BROOMFIELD     PTSUNNY   48  16  27 NW5       30.20F
LOVELAND       PTSUNNY   51  21  30 CALM      30.20F
LONGMONT       FAIR      55  15  20 CALM      30.21F
$$

COZ041-046-047-076>085-087-088-191900-
...PIKES PEAK/PALMER DIVIDE AND SOUTHERN FOOTHILLS...

CITY           SKY/WX    TMP DP  RH WIND       PRES   REMARKS
COLO. SPRINGS  PTSUNNY   51  11  20 SE10G21   30.24F
A. F. ACADEMY  MOSUNNY   51  10  19 SE17      30.21F
SCHRIEVER AFB  NOT AVBL
CHEYENNE MTN   NOT AVBL
ELLICOTT         N/A    N/A N/A N/A S23G33    30.23F
FALCON         FAIR      49   8  18 S15G25    30.26F
FORT CARSON    SUNNY     51  12  20 SE8       30.22F
LIMON          PTSUNNY   54  18  24 SE30G40   30.24F
MONUMENT HILL  MOSUNNY   50  12  22 S26G33    30.22S
CANON CITY     FAIR      55  16  21 NE8G16    30.21F
WALSENBURG     FAIR      63  16  16 E9        30.19F
TRINIDAD       SUNNY     62  12  14 S21G36    30.21F
$$

COZ042>045-048>051-090-091-191900-
...NORTHEAST COLORADO...

CITY           SKY/WX    TMP DP  RH WIND       PRES   REMARKS
GREELEY ARPT   PTSUNNY   59  17  19 SE20      30.19F
AKRON          PTSUNNY   53  25  33 S28G40    30.26F
BURLINGTON     MOSUNNY   57  27  31 SE20G32   30.31F
WRAY           FAIR      59  28  31 SE21G30   30.32F
YUMA           NOT AVBL
STERLING       NOT AVBL
HOLYOKE        FAIR      59  30  33 SE23      30.32F
FORT MORGAN    FAIR      58  16  19 S22G32    30.23F
$$

COZ086-089-092>099-191900-
...SOUTHEAST COLORADO...

CITY           SKY/WX    TMP DP  RH WIND       PRES   REMARKS
PUEBLO         SUNNY     54  15  21 VRB3      30.21F
LA JUNTA       SUNNY     67  12  12 SE17G31   30.21F
LAMAR          SUNNY     63  21  20 S25G39    30.27F
SPRINGFIELD      N/A     59  22  24 S24G39    30.31F
$$





USA.gov is the U.S. government's official web portal to all federal, state and local government web resources and services.